"Pseudo-MPEC" for C1HHXX2

Created 2019 Dec 5 17:07:05 UT using Find_Orb

Click here for an explanation of pseudo-MPECs

 
 Astrometry: 
     C1HHXX2  C2019 12 02.34771 06 14 11.51 +34 42 59.5    ~C297 21.1 GVNEOCPG96
     C1HHXX2  C2019 12 02.35293 06 14 10.55 +34 42 54.1    ~C297 21.4 GVNEOCPG96
     C1HHXX2  C2019 12 02.35816 06 14 09.57 +34 42 49.3    ~C297 20.9 GVNEOCPG96
     C1HHXX2  C2019 12 02.36338 06 14 08.59 +34 42 44.2    ~C297 21.1 GVNEOCPG96
     C1HHXX2  C2019 12 02.43196 06 13 55.89 +34 41 31.4    ~C2Aq 21.4 GVNEOCPV06
     C1HHXX2  C2019 12 02.43373 06 13 55.56 +34 41 29.2    ~C2Aq 21.2 GVNEOCPV06
     C1HHXX2  C2019 12 02.43551 06 13 55.34 +34 41 27.9    ~C2Aq       VNEOCPV06
     C1HHXX2  C2019 12 02.43729 06 13 55.02 +34 41 25.8    ~C2Aq       VNEOCPV06
     C1HHXX2  C2019 12 03.27590 06 12 06.22 +34 27 54.3    ~C377 21.6 GVNEOCPG96
     C1HHXX2  C2019 12 03.27700 06 12 05.95 +34 27 53.6    ~C377 22.0 GVNEOCPG96
     C1HHXX2  C2019 12 03.27810 06 12 05.79 +34 27 52.6    ~C377 21.5 GVNEOCPG96
     C1HHXX2 KC2019 12 05]C_B3f/\!:,AstrometryNE4=Rredacted;M$hoFPNPrclickY2#H21
     C1HHXX2 KC2019 12 05H(#_%[l(kN)_[2*IO6vhere-forXFS.texplanation][TJ^VRoXH21

Station data:
(G96) Mt. Lemmon Survey  (N32.442754 W110.788720)  US/Arizona.  Observers T.
   A. Pruyne, B. M. Africano, E. J. Christensen, G. A. Farneth, D. C. Fuls,
   A. R. Gibbs, A. D. Grauer, H. Gröller, J. A. Johnson, R. A. Kowalski, S.
   M. Larson, G. J. Leonard, D. Rankin, R. L. Seaman, F. C. Shelly. 1.5-m
   reflector + 10K CCD.
(H21) Astronomical Research Observatory, Westfield  (N39.483057 W87.968270)
   US/Illinois. 0.76-m f/3.0 astrograph + CCD.
(V06) Catalina Sky Survey-Kuiper  (N32.416847 W110.732550)  US/Arizona.
   Observers T. A. Pruyne, B. M. Africano, E. J. Christensen, G. A. Farneth,
   D. C. Fuls, A. R. Gibbs, A. D. Grauer, H. Gröller, J. A. Johnson, R. A.
   Kowalski, S. M. Larson, G. J. Leonard, D. Rankin, R. L. Seaman, F. C.
   Shelly. 1.55-m reflector + CCD.

Orbital elements:  C1HHXX2
   Perihelion 2019 Oct 19.636623 +/- 0.0316 TT = 15:16:44 (JD 2458776.136623)
Epoch 2019 Dec  5.0 TT = JDT 2458822.5   Earth MOID: 0.0068   Ma: 0.0101
M  15.95621103 +/- 0.23             (J2000 ecliptic)          AutoNEOCP
n   0.34415549 +/- 0.00476          Peri.  329.34851 +/- 0.07
a   2.01666105 +/- 0.0186           Node    46.53510 +/- 0.09
e   0.5521026 +/- 0.0044            Incl.    2.26631 +/- 0.012
P   2.86                   H 25.6   G  0.15   U  9.1  
q 0.90325714 +/- 0.000549    Q 3.13006495 +/- 0.0373
From 13 observations 2019 Dec. 2-5; mean residual 0".35
Residuals in arcseconds: 
191202 G96  .20-  .09+    191202 V06  .62-  .29-    191203 G96  .04-  .37-    
191202 G96  .04-  .21-    191202 V06  .65+  .40+    191205 H21  .11+  .09+    
191202 G96  .11-  .14+    191202 V06  .68+  .29+    191205 H21  .22-  .12+    
191202 G96  .20-  .23+    191203 G96  .81+  .38-    
191202 V06  .52-  .07-    191203 G96  .30-  .22-    

Ephemerides (geocentric):
Date (UTC) HH   RA              Dec         delta   r     elong  mag " sig PA
---- -- -- --  -------------   -----------  ------ ------ -----  --- ---- ---
2019 12 05 17  06 07 19.909   +33 54 17.64  .11285 1.0914 158.8 22.0 .297 137
2019 12 05 18  06 07 15.596   +33 53 46.43  .11312 1.0917 158.8 22.0 .297 139
2019 12 05 19  06 07 11.298   +33 53 15.32  .11340 1.0920 158.9 22.0 .298 142
2019 12 05 20  06 07 07.016   +33 52 44.31  .11367 1.0922 158.9 22.0 .300 144
2019 12 05 21  06 07 02.748   +33 52 13.39  .11394 1.0925 159.0 22.0 .302 146
2019 12 05 22  06 06 58.496   +33 51 42.57  .11422 1.0928 159.0 22.0 .304 148
2019 12 05 23  06 06 54.259   +33 51 11.85  .11449 1.0931 159.1 22.0 .307 151
2019 12 06 00  06 06 50.038   +33 50 41.22  .11476 1.0934 159.2 22.0 .310 153
2019 12 06 01  06 06 45.831   +33 50 10.69  .11504 1.0937 159.2 22.0 .314 155
2019 12 06 02  06 06 41.638   +33 49 40.25  .11531 1.0940 159.3 22.0 .318 157
2019 12 06 03  06 06 37.461   +33 49 09.90  .11559 1.0943 159.3 22.1 .323 159
2019 12 06 04  06 06 33.298   +33 48 39.64  .11586 1.0945 159.4 22.1 .328 161
2019 12 06 05  06 06 29.149   +33 48 09.48  .11613 1.0948 159.4 22.1 .333 164
2019 12 06 06  06 06 25.015   +33 47 39.41  .11641 1.0951 159.5 22.1 .339 166
2019 12 06 07  06 06 20.896   +33 47 09.43  .11668 1.0954 159.5 22.1 .346 168
2019 12 06 08  06 06 16.790   +33 46 39.53  .11696 1.0957 159.6 22.1 .353 169
2019 12 06 09  06 06 12.699   +33 46 09.73  .11723 1.0960 159.6 22.1 .360 171
2019 12 06 10  06 06 08.622   +33 45 40.02  .11751 1.0963 159.7 22.1 .367 173
2019 12 06 11  06 06 04.558   +33 45 10.39  .11778 1.0966 159.7 22.1 .375 175
2019 12 06 12  06 06 00.509   +33 44 40.86  .11806 1.0969 159.8 22.1 .384 177
2019 12 06 13  06 05 56.473   +33 44 11.40  .11833 1.0971 159.8 22.1 .393 178
2019 12 06 14  06 05 52.451   +33 43 42.04  .11861 1.0974 159.9 22.1 .402   0
2019 12 06 15  06 05 48.443   +33 43 12.76  .11888 1.0977 159.9 22.1 .411   1
2019 12 06 16  06 05 44.448   +33 42 43.57  .11916 1.0980 160.0 22.1 .421   3
2019 12 06 17  06 05 40.467   +33 42 14.46  .11943 1.0983 160.0 22.1 .431   4
2019 12 06 18  06 05 36.499   +33 41 45.43  .11971 1.0986 160.1 22.1 .442   6
2019 12 06 19  06 05 32.544   +33 41 16.49  .11998 1.0989 160.2 22.1 .452   7
2019 12 06 20  06 05 28.603   +33 40 47.63  .12026 1.0992 160.2 22.1 .463   8
2019 12 06 21  06 05 24.675   +33 40 18.86  .12053 1.0995 160.3 22.1 .475   9
2019 12 06 22  06 05 20.759   +33 39 50.16  .12081 1.0997 160.3 22.1 .486  11
2019 12 06 23  06 05 16.857   +33 39 21.55  .12108 1.1000 160.4 22.1 .498  12
2019 12 07 00  06 05 12.968   +33 38 53.02  .12136 1.1003 160.4 22.1 .510  13
2019 12 07 01  06 05 09.091   +33 38 24.56  .12164 1.1006 160.5 22.1 .523  14
2019 12 07 02  06 05 05.227   +33 37 56.19  .12191 1.1009 160.5 22.1 .535  15
2019 12 07 03  06 05 01.376   +33 37 27.90  .12219 1.1012 160.6 22.1 .548  16
2019 12 07 04  06 04 57.538   +33 36 59.68  .12247 1.1015 160.6 22.1 .561  17
2019 12 07 05  06 04 53.712   +33 36 31.54  .12274 1.1018 160.7 22.2 .574  18
2019 12 07 06  06 04 49.898   +33 36 03.48  .12302 1.1021 160.7 22.2 .587  19
2019 12 07 07  06 04 46.097   +33 35 35.50  .12330 1.1024 160.8 22.2 .601  19
2019 12 07 08  06 04 42.308   +33 35 07.60  .12357 1.1026 160.8 22.2 .614  20
2019 12 07 09  06 04 38.531   +33 34 39.77  .12385 1.1029 160.9 22.2 .628  21
2019 12 07 10  06 04 34.767   +33 34 12.01  .12413 1.1032 160.9 22.2 .642  22
2019 12 07 11  06 04 31.014   +33 33 44.33  .12440 1.1035 161.0 22.2 .657  23
2019 12 07 12  06 04 27.274   +33 33 16.73  .12468 1.1038 161.0 22.2 .671  23
2019 12 07 13  06 04 23.545   +33 32 49.19  .12496 1.1041 161.1 22.2 .685  24
2019 12 07 14  06 04 19.828   +33 32 21.74  .12524 1.1044 161.1 22.2 .700  25
2019 12 07 15  06 04 16.124   +33 31 54.35  .12551 1.1047 161.2 22.2 .715  25
2019 12 07 16  06 04 12.430   +33 31 27.04  .12579 1.1050 161.2 22.2 .730  26